Location: *
(58.7167°N, 26.1833°E)
Time: 17:59:00
(UTC+00:00)

SL-16 R/B - Pass Details

Date: 25 August 2019
Orbit: 842 x 848 km, 71.0° (Epoch: 14 September)

Event Time Altitude Azimuth Distance (km) Brightness Sun altitude
Rises 18:49:54 0° 285° (WNW) 3,406 6.7 -9.0°
Reaches altitude 10° 18:52:50 10° 299° (WNW) 2,472 6.2 -9.3°
Maximum altitude 18:57:24 24° 353° (N) 1,674 4.4 -9.8°
Drops below altitude 10° 19:02:00 10° 47° (NE) 2,476 4.6 -10.2°
Sets 19:04:56 0° 61° (ENE) 3,413 5.2 -10.5°
